Regional Weather Roundup
Issued by NWS

Home | Current Version | Previous Version | Text Only | Print | Product List | Glossary On
Versions: 1 2 3 4 5 6 7 8 9 10 11 12 13 14 15 16 17 18 19 20 21 22 23 24 25 26 27
000
ASPQ40 PGUM 211512
RWRPQ
WEATHER ROUNDUP FOR THE MARIANAS AND MICRONESIA
NATIONAL WEATHER SERVICE TIYAN GU
100 AM CHST THU FEB 22 2018

GUZ001>004-211600-
MARIANA ISLANDS-

CITY           SKY/WX    TMP DP  RH WIND       PRES   REMARKS
GUAM AIRPORT   CLEAR     77  72  83 NE7       29.89F
ANDERSEN AFB   PTCLDY    77  70  78 NE15      29.90F
ROTA AIRPORT   NOT AVBL
TINIAN AP      NOT AVBL
SAIPAN AP      PTCLDY    79  70  73 NE8       29.90F

$$

PMZ161-211600-
REPUBLIC OF PALAU-

CITY           SKY/WX    TMP DP  RH WIND       PRES   REMARKS
KOROR AP       MOCLDY    82  73  74 NE10G20   29.80S
KOROR WSO      MOCLDY    81  73  78 NE8       29.81S

$$

PMZ171>174-211600-
FEDERATED STATES OF MICRONESIA-

CITY           SKY/WX    TMP DP  RH WIND       PRES   REMARKS
YAP AIRPORT    CLOUDY    82  77  83 NE13      29.81F HX  91
CHUUK AP       CLOUDY    79  77  94 VRB3      29.76F
POHNPEI AP     NOT AVBL
POHNPEI WSO    LGT RAIN  81  75  83 E5        29.81F
KOSRAE AP      NOT AVBL

$$

PMZ181-211600-
REPUBLIC OF THE MARSHALL ISLANDS-

CITY           SKY/WX    TMP DP  RH WIND       PRES   REMARKS
KWAJALEIN AP   CLEAR     79  70  73 E14       29.81F
MAJURO AP      NOT AVBL
MAJURO WSO     NOT AVBL

$$





USA.gov is the U.S. government's official web portal to all federal, state and local government web resources and services.